{"data":{"norad_id":63679,"epoch":"2026-09-20T08:47:33.079776Z","epoch_age_seconds":164153,"freshness":"FRESH","line1":"1 63679U 25085R   26263.36635509  .00005442  00000+0  20711-3 0  9995","line2":"2 63679  43.0033  11.4429 0001304 251.5220 108.5490 15.27584911 78636","mean_motion":15.27584911,"eccentricity":0.0001304,"inclination_deg":43.0033,"raan_deg":11.4429,"arg_perigee_deg":251.522,"mean_anomaly_deg":108.549,"bstar":0.00020711,"rev_number":7863,"period_min":94.266445657501,"perigee_km":482.13969402897,"apogee_km":483.92908752768,"semimajor_km":6861.1713907783,"source":"CELESTRAK","updated_at":"2026-09-21T09:00:35.060134Z"}}